Location: Freemans Gardens
(41.6414°N, 83.6077°W)
Time: 03:43:25
(UTC+00:00)

AQUARIUS - Pass Details

Date: 29 October 2020
Orbit: 650 x 653 km, 98.0° (Epoch: 26 November)

Event Time Altitude Azimuth Distance (km) Brightness Sun altitude
Rises 23:00:45 0° 164° (SSE) 2,960 7.5 -6.0°
Reaches altitude 10° 23:02:57 10° 164° (SSE) 2,053 6.7 -6.4°
Maximum altitude 23:07:26 85° 77° (ENE) 661 4.2 -7.2°
Drops below altitude 10° 23:11:57 10° 348° (NNW) 2,068 6.8 -8.0°
Sets 23:14:11 0° 348° (NNW) 2,983 7.6 -8.4°
